Kezdőlap
METAR-TAF:

METAR-TAF

Repülőterek :

Prairie du Chien Municipal Airport

Prairie du Chien, Wisconsin, Amerikai Egyesült Államok

földrajzi szélesség: 43-01-19N, földrajzi hosszúság: 091-07-29W, magasság: 201 m

Jelenlegi meteorológiai megfigyelések

A jelentés 19 perccel ezelõtt készült, 02:55 UTC
Délkeleti szél 5 kt
Hőmérséklet -9°C
Páratartalom 52%
Légköri nyomás 1020 hPa
Látótávolság: 16.1 km
Derült ég

METAR: KPDC 270255Z AUTO 14005KT 10SM CLR M09/M17 A3011 RMK AO2 T10951171

Idő: 21:14 (03:14 UTC)


TAF: hiányzik

Meteorológiai megfigyelések és előrejelzések több, mint 4000 repülőtéren (METAR és TAF jelentéseket).

A térképen piros és sárga pontok jelzik az elérhető meteorológiai állomásokat.

Mozgassa az egeret a pont fölött, hogy megjelenjen az állomás neve.

Azután kattintson az időjárási megfigyelések és előrejelzések megtekintéséhez.

A térkép megváltoztatása: kattintson a fekete keresztel jelölt zöld gombra ráközelítéshez, a vonallal jelölt zöld gombra távolításhoz, vagy a zöld nyilakra a szomszédos térképek eléréséhez.


METAR-TAF: